| time (UTC) | temp F | wind direction | speed MPH | gust MPH | rain 1hr in | rain 24hr in | rain mn in | humidity % | barometer mb |
| 20260506062358 | 62 | 102 | 1.0 | 1.0 | 0.00 | 0.00 | 0.00 | 66 | 1007.2 |
| 20260506061854 | 62 | 150 | 1.0 | 1.0 | 0.00 | 0.00 | 0.00 | 67 | 1007.1 |
| 20260506061351 | 62 | 110 | 1.0 | 2.0 | 0.00 | 0.00 | 0.00 | 67 | 1007.0 |
| 20260506060848 | 62 | 116 | 0.0 | 1.0 | 0.00 | 0.00 | 0.00 | 66 | 1007.2 |
| 20260506060346 | 62 | 125 | 0.0 | 0.0 | 0.00 | 0.00 | 0.00 | 66 | 1007.2 |
| 20260506051318 | 62 | 107 | 0.0 | 3.0 | 0.00 | 0.00 | 0.00 | 64 | 1007.3 |
| 20260506050816 | 62 | 153 | 0.0 | 0.0 | 0.00 | 0.00 | 0.00 | 64 | 1007.5 |
| 20260506050313 | 63 | 125 | 0.0 | 0.0 | 0.00 | 0.00 | 0.00 | 63 | 1007.5 |
| 20260506044804 | 63 | 100 | 1.0 | 1.0 | 0.00 | 0.00 | 0.00 | 62 | 1007.7 |
| 20260506044301 | 64 | 117 | 0.0 | 1.0 | 0.00 | 0.00 | 0.00 | 61 | 1007.5 |
| 20260506043758 | 64 | 134 | 0.0 | 2.0 | 0.00 | 0.00 | 0.00 | 61 | 1007.6 |
| 20260506043255 | 64 | 94 | 0.0 | 4.0 | 0.00 | 0.00 | 0.00 | 61 | 1007.8 |
| 20260506042754 | 64 | 225 | 2.0 | 7.0 | 0.00 | 0.00 | 0.00 | 60 | 1007.5 |
| 20260506042253 | 64 | 165 | 1.0 | 2.0 | 0.00 | 0.00 | 0.00 | 61 | 1007.5 |
| 20260506041751 | 64 | 195 | 0.0 | 1.0 | 0.00 | 0.00 | 0.00 | 60 | 1007.5 |
| 20260506041247 | 64 | 136 | 1.0 | 2.0 | 0.00 | 0.00 | 0.00 | 60 | 1007.7 |
| 20260506040745 | 65 | 128 | 0.0 | 2.0 | 0.00 | 0.00 | 0.00 | 60 | 1007.4 |
| 20260506040242 | 65 | 197 | 4.0 | 6.0 | 0.00 | 0.00 | 0.00 | 59 | 1007.6 |
| 20260506035739 | 65 | 110 | 0.0 | 3.0 | 0.00 | 0.00 | 0.00 | 59 | 1007.4 |
| 20260506035236 | 65 | 58 | 1.0 | 4.0 | 0.00 | 0.00 | 0.00 | 60 | 1007.7 |
| 20260506034733 | 66 | 153 | 0.0 | 1.0 | 0.00 | 0.00 | 0.00 | 59 | 1007.5 |
| 20260506034230 | 66 | 157 | 1.0 | 7.0 | 0.00 | 0.00 | 0.00 | 58 | 1007.4 |
| 20260506033727 | 66 | 223 | 1.0 | 6.0 | 0.00 | 0.00 | 0.00 | 59 | 1007.4 |
| 20260506033224 | 66 | 121 | 2.0 | 2.0 | 0.00 | 0.00 | 0.00 | 58 | 1007.4 |
| 20260506032720 | 66 | 48 | 0.0 | 3.0 | 0.00 | 0.00 | 0.00 | 58 | 1007.5 |
| 20260506032217 | 66 | 202 | 2.0 | 2.0 | 0.00 | 0.00 | 0.00 | 57 | 1007.3 |
| 20260506031714 | 66 | 107 | 4.0 | 6.0 | 0.00 | 0.00 | 0.00 | 57 | 1007.2 |
| 20260506031212 | 66 | 209 | 1.0 | 6.0 | 0.00 | 0.00 | 0.00 | 57 | 1007.3 |
| 20260506030710 | 67 | 203 | 1.0 | 2.0 | 0.00 | 0.00 | 0.00 | 57 | 1007.2 |
| 20260506030207 | 67 | 134 | 3.0 | 7.0 | 0.00 | 0.00 | 0.00 | 56 | 1007.1 |
| 20260506025703 | 66 | 207 | 4.0 | 6.0 | 0.00 | 0.00 | 0.00 | 57 | 1007.3 |
| 20260506025159 | 66 | 199 | 4.0 | 7.0 | 0.00 | 0.00 | 0.00 | 57 | 1007.4 |
| 20260506024657 | 66 | 138 | 1.0 | 2.0 | 0.00 | 0.00 | 0.00 | 59 | 1007.3 |
| 20260506024153 | 65 | 136 | 0.0 | 4.0 | 0.00 | 0.00 | 0.00 | 62 | 1007.4 |
| 20260506023649 | 64 | 144 | 0.0 | 0.0 | 0.00 | 0.00 | 0.00 | 64 | 1007.3 |
| 20260506023147 | 64 | 84 | 0.0 | 0.0 | 0.00 | 0.00 | 0.00 | 69 | 1007.3 |
| 20260506022644 | 64 | 122 | 0.0 | 0.0 | 0.00 | 0.00 | 0.00 | 69 | 1007.3 |
| 20260506022141 | 64 | 116 | 0.0 | 0.0 | 0.00 | 0.00 | 0.00 | 68 | 1007.2 |
| 20260506021639 | 65 | 135 | 0.0 | 0.0 | 0.00 | 0.00 | 0.00 | 67 | 1007.2 |
| 20260506021136 | 65 | 142 | 0.0 | 0.0 | 0.00 | 0.00 | 0.00 | 66 | 1007.1 |
| 20260506020633 | 66 | 129 | 0.0 | 0.0 | 0.00 | 0.00 | 0.00 | 65 | 1007.2 |
| 20260506020131 | 66 | 148 | 0.0 | 0.0 | 0.00 | 0.00 | 0.00 | 64 | 1007.2 |
| 20260506015628 | 67 | 124 | 0.0 | 0.0 | 0.00 | 0.00 | 0.00 | 62 | 1007.3 |
| 20260506015125 | 68 | 124 | 0.0 | 0.0 | 0.00 | 0.00 | 0.00 | 61 | 1007.2 |
| 20260506014623 | 68 | 124 | 0.0 | 0.0 | 0.00 | 0.00 | 0.00 | 60 | 1007.2 |
| 20260506014118 | 69 | 144 | 0.0 | 0.0 | 0.00 | 0.00 | 0.00 | 58 | 1007.4 |
| 20260506013617 | 70 | 144 | 0.0 | 0.0 | 0.00 | 0.00 | 0.00 | 57 | 1007.4 |
| 20260506013113 | 70 | 262 | 1.0 | 2.0 | 0.00 | 0.00 | 0.00 | 56 | 1007.3 |
| 20260506012609 | 71 | 155 | 0.0 | 0.0 | 0.00 | 0.00 | 0.00 | 55 | 1007.2 |
| 20260506012106 | 71 | 118 | 1.0 | 3.0 | 0.00 | 0.00 | 0.00 | 54 | 1007.1 |
| 20260506011604 | 71 | 171 | 0.0 | 2.0 | 0.00 | 0.00 | 0.00 | 53 | 1007.2 |
| 20260506011100 | 72 | 132 | 1.0 | 1.0 | 0.00 | 0.00 | 0.00 | 52 | 1007.1 |
| 20260506010559 | 72 | 174 | 2.0 | 2.0 | 0.00 | 0.00 | 0.00 | 51 | 1006.9 |
| 20260506010055 | 72 | 149 | 0.0 | 2.0 | 0.00 | 0.00 | 0.00 | 50 | 1006.8 |
| 20260506005552 | 73 | 134 | 5.0 | 9.0 | 0.00 | 0.00 | 0.00 | 49 | 1006.8 |
| 20260506005049 | 73 | 288 | 3.0 | 6.0 | 0.00 | 0.00 | 0.00 | 49 | 1007.2 |
| 20260506005012 | 74 | 254 | 0.0 | 1.0 | 0.00 | 0.00 | 0.00 | 52 | 1006.2 |
| 20260506004546 | 74 | 294 | 4.0 | 6.0 | 0.00 | 0.00 | 0.00 | 46 | 1007.2 |
| 20260506004042 | 74 | 284 | 2.0 | 4.0 | 0.00 | 0.00 | 0.00 | 44 | 1007.3 |
| 20260506004011 | 74 | 280 | 0.0 | 0.0 | 0.00 | 0.00 | 0.00 | 48 | 1006.3 |
| 20260506003539 | 74 | 129 | 1.0 | 3.0 | 0.00 | 0.00 | 0.00 | 44 | 1006.8 |
| 20260506003036 | 74 | 151 | 0.0 | 2.0 | 0.00 | 0.00 | 0.00 | 44 | 1006.5 |
| 20260506003011 | 75 | 247 | 0.0 | 0.0 | 0.00 | 0.00 | 0.00 | 47 | 1005.7 |
| 20260506002531 | 75 | 207 | 2.0 | 3.0 | 0.00 | 0.00 | 0.00 | 43 | 1006.2 |
| 20260506002027 | 75 | 61 | 1.0 | 3.0 | 0.00 | 0.00 | 0.00 | 43 | 1006.0 |
| 20260506001524 | 75 | 199 | 2.0 | 6.0 | 0.00 | 0.00 | 0.00 | 43 | 1005.3 |
| 20260506001021 | 75 | 208 | 8.0 | 8.0 | 0.00 | 0.00 | 0.00 | 41 | 1005.4 |
| 20260506001011 | 76 | 182 | 8.0 | 2.0 | 0.00 | 0.00 | 0.00 | 45 | 1004.5 |
| 20260506000519 | 76 | 144 | 2.0 | 4.0 | 0.00 | 0.00 | 0.00 | 41 | 1005.1 |
| 20260506000016 | 76 | 128 | 1.0 | 6.0 | 0.00 | 0.00 | 0.00 | 40 | 1005.1 |
| 20260506000011 | 76 | 49 | 0.0 | 1.0 | 0.00 | 0.00 | 0.00 | 44 | 1004.0 |
| 20260505235514 | 76 | 257 | 4.0 | 6.0 | 0.00 | 0.00 | 0.00 | 40 | 1004.6 |
| 20260505235010 | 76 | 234 | 3.0 | 11.0 | 0.00 | 0.00 | 0.00 | 39 | 1004.9 |
| 20260505234507 | 76 | 168 | 1.0 | 9.0 | 0.00 | 0.00 | 0.00 | 39 | 1004.5 |
| 20260505234004 | 77 | 160 | 2.0 | 7.0 | 0.00 | 0.00 | 0.00 | 38 | 1004.5 |
| 20260505233501 | 77 | 176 | 2.0 | 4.0 | 0.00 | 0.00 | 0.00 | 38 | 1004.4 |
| 20260505232959 | 77 | 90 | 3.0 | 6.0 | 0.00 | 0.00 | 0.00 | 38 | 1004.3 |
| 20260505232457 | 77 | 152 | 1.0 | 6.0 | 0.00 | 0.00 | 0.00 | 38 | 1004.3 |
| 20260505231953 | 77 | 318 | 5.0 | 6.0 | 0.00 | 0.00 | 0.00 | 37 | 1004.1 |
| 20260505231451 | 78 | 249 | 2.0 | 9.0 | 0.00 | 0.00 | 0.00 | 37 | 1004.2 |
| 20260505230949 | 78 | 126 | 2.0 | 8.0 | 0.00 | 0.00 | 0.00 | 36 | 1003.6 |
| 20260505230446 | 78 | 198 | 6.0 | 10.0 | 0.00 | 0.00 | 0.00 | 36 | 1004.0 |
| 20260505225942 | 78 | 315 | 1.0 | 6.0 | 0.00 | 0.00 | 0.00 | 36 | 1003.8 |
| 20260505225440 | 78 | 353 | 4.0 | 7.0 | 0.00 | 0.00 | 0.00 | 36 | 1003.7 |
| 20260505224936 | 79 | 134 | 2.0 | 9.0 | 0.00 | 0.00 | 0.00 | 36 | 1003.8 |
| 20260505224433 | 79 | 145 | 1.0 | 8.0 | 0.00 | 0.00 | 0.00 | 36 | 1003.7 |
| 20260505223930 | 79 | 152 | 1.0 | 6.0 | 0.00 | 0.00 | 0.00 | 35 | 1003.6 |
| 20260505223427 | 80 | 280 | 7.0 | 9.0 | 0.00 | 0.00 | 0.00 | 34 | 1003.4 |
| 20260505222923 | 80 | 139 | 2.0 | 8.0 | 0.00 | 0.00 | 0.00 | 34 | 1003.6 |
| 20260505222420 | 81 | 238 | 5.0 | 9.0 | 0.00 | 0.00 | 0.00 | 34 | 1003.2 |
| 20260505221916 | 81 | 222 | 2.0 | 6.0 | 0.00 | 0.00 | 0.00 | 33 | 1003.2 |
| 20260505221413 | 81 | 59 | 2.0 | 14.0 | 0.00 | 0.00 | 0.00 | 32 | 1003.3 |
| 20260505220910 | 81 | 301 | 4.0 | 10.0 | 0.00 | 0.00 | 0.00 | 32 | 1003.2 |
| 20260505220407 | 81 | 249 | 4.0 | 9.0 | 0.00 | 0.00 | 0.00 | 32 | 1003.0 |
| 20260505215905 | 81 | 311 | 6.0 | 10.0 | 0.00 | 0.00 | 0.00 | 32 | 1003.0 |
| 20260505215402 | 81 | 292 | 4.0 | 8.0 | 0.00 | 0.00 | 0.00 | 32 | 1003.1 |
| 20260505214900 | 81 | 301 | 3.0 | 8.0 | 0.00 | 0.00 | 0.00 | 32 | 1003.0 |
| 20260505214357 | 81 | 229 | 5.0 | 8.0 | 0.00 | 0.00 | 0.00 | 32 | 1002.9 |
| 20260505213854 | 81 | 149 | 8.0 | 14.0 | 0.00 | 0.00 | 0.00 | 31 | 1002.7 |
| 20260505213352 | 82 | 184 | 1.0 | 13.0 | 0.00 | 0.00 | 0.00 | 31 | 1002.6 |
| 20260505212848 | 82 | 175 | 4.0 | 7.0 | 0.00 | 0.00 | 0.00 | 32 | 1002.6 |
| 20260505212345 | 82 | 223 | 2.0 | 4.0 | 0.00 | 0.00 | 0.00 | 32 | 1002.6 |
| 20260505211841 | 82 | 211 | 1.0 | 3.0 | 0.00 | 0.00 | 0.00 | 32 | 1002.7 |
| 20260505211339 | 82 | 318 | 4.0 | 9.0 | 0.00 | 0.00 | 0.00 | 31 | 1002.7 |
| 20260505210835 | 82 | 283 | 6.0 | 10.0 | 0.00 | 0.00 | 0.00 | 31 | 1002.5 |
| 20260505210332 | 82 | 147 | 2.0 | 10.0 | 0.00 | 0.00 | 0.00 | 31 | 1002.7 |
| 20260505205829 | 82 | 158 | 2.0 | 9.0 | 0.00 | 0.00 | 0.00 | 31 | 1002.4 |
| 20260505205328 | 83 | 239 | 4.0 | 13.0 | 0.00 | 0.00 | 0.00 | 30 | 1002.7 |
| 20260505204824 | 83 | 127 | 2.0 | 11.0 | 0.00 | 0.00 | 0.00 | 30 | 1002.6 |
| 20260505204322 | 83 | 29 | 5.0 | 11.0 | 0.00 | 0.00 | 0.00 | 29 | 1002.6 |
| 20260505203819 | 83 | 142 | 7.0 | 13.0 | 0.00 | 0.00 | 0.00 | 29 | 1002.7 |
| 20260505203316 | 84 | 131 | 3.0 | 11.0 | 0.00 | 0.00 | 0.00 | 29 | 1002.4 |
| 20260505202812 | 85 | 145 | 4.0 | 16.0 | 0.00 | 0.00 | 0.00 | 28 | 1002.6 |
| 20260505202308 | 85 | 314 | 6.0 | 9.0 | 0.00 | 0.00 | 0.00 | 27 | 1002.3 |
| 20260505201805 | 85 | 168 | 3.0 | 4.0 | 0.00 | 0.00 | 0.00 | 29 | 1002.7 |
| 20260505201302 | 84 | 236 | 6.0 | 9.0 | 0.00 | 0.00 | 0.00 | 28 | 1002.9 |
| 20260505200801 | 84 | 289 | 2.0 | 8.0 | 0.00 | 0.00 | 0.00 | 28 | 1002.8 |
| 20260505200257 | 84 | 227 | 6.0 | 8.0 | 0.00 | 0.00 | 0.00 | 27 | 1002.6 |
| 20260505195752 | 84 | 183 | 3.0 | 15.0 | 0.00 | 0.00 | 0.00 | 28 | 1002.9 |
| 20260505195251 | 84 | 219 | 2.0 | 13.0 | 0.00 | 0.00 | 0.00 | 28 | 1002.9 |
| 20260505194747 | 85 | 231 | 8.0 | 16.0 | 0.00 | 0.00 | 0.00 | 27 | 1002.9 |
| 20260505194244 | 85 | 42 | 4.0 | 9.0 | 0.00 | 0.00 | 0.00 | 27 | 1002.7 |
| 20260505193739 | 85 | 177 | 6.0 | 15.0 | 0.00 | 0.00 | 0.00 | 27 | 1002.7 |
| 20260505193237 | 86 | 101 | 7.0 | 9.0 | 0.00 | 0.00 | 0.00 | 27 | 1002.8 |
| 20260505192736 | 84 | 264 | 4.0 | 8.0 | 0.00 | 0.00 | 0.00 | 28 | 1002.9 |
| 20260505192233 | 84 | 212 | 5.0 | 11.0 | 0.00 | 0.00 | 0.00 | 27 | 1003.2 |
| 20260505191731 | 84 | 132 | 2.0 | 10.0 | 0.00 | 0.00 | 0.00 | 29 | 1003.0 |
| 20260505191229 | 85 | 149 | 4.0 | 10.0 | 0.00 | 0.00 | 0.00 | 29 | 1002.9 |
| 20260505190725 | 86 | 54 | 8.0 | 11.0 | 0.00 | 0.00 | 0.00 | 27 | 1003.1 |
| 20260505190225 | 84 | 155 | 2.0 | 6.0 | 0.00 | 0.00 | 0.00 | 28 | 1003.3 |
| 20260505185722 | 85 | 232 | 7.0 | 15.0 | 0.00 | 0.00 | 0.00 | 27 | 1003.4 |
| 20260505185218 | 84 | 186 | 2.0 | 9.0 | 0.00 | 0.00 | 0.00 | 29 | 1003.5 |
| 20260505184714 | 84 | 282 | 2.0 | 11.0 | 0.00 | 0.00 | 0.00 | 29 | 1003.3 |
| 20260505184212 | 84 | 306 | 8.0 | 13.0 | 0.00 | 0.00 | 0.00 | 28 | 1003.4 |
| 20260505183708 | 84 | 143 | 6.0 | 13.0 | 0.00 | 0.00 | 0.00 | 29 | 1003.8 |
| 20260505183206 | 83 | 222 | 3.0 | 13.0 | 0.00 | 0.00 | 0.00 | 30 | 1003.9 |
| 20260505182702 | 83 | 50 | 3.0 | 10.0 | 0.00 | 0.00 | 0.00 | 30 | 1003.9 |
| 20260505182159 | 83 | 82 | 3.0 | 14.0 | 0.00 | 0.00 | 0.00 | 30 | 1004.0 |
| 20260505181655 | 83 | 245 | 6.0 | 10.0 | 0.00 | 0.00 | 0.00 | 31 | 1004.0 |
| 20260505181153 | 84 | 245 | 7.0 | 9.0 | 0.00 | 0.00 | 0.00 | 30 | 1004.0 |
| 20260505180649 | 84 | 288 | 4.0 | 11.0 | 0.00 | 0.00 | 0.00 | 31 | 1003.9 |
| 20260505180147 | 84 | 208 | 3.0 | 6.0 | 0.00 | 0.00 | 0.00 | 31 | 1004.0 |
| 20260505175642 | 84 | 213 | 4.0 | 13.0 | 0.00 | 0.00 | 0.00 | 31 | 1004.1 |
| 20260505175139 | 84 | 109 | 4.0 | 8.0 | 0.00 | 0.00 | 0.00 | 31 | 1004.2 |
| 20260505174636 | 83 | 173 | 8.0 | 11.0 | 0.00 | 0.00 | 0.00 | 30 | 1004.3 |
| 20260505174132 | 83 | 172 | 4.0 | 8.0 | 0.00 | 0.00 | 0.00 | 32 | 1004.2 |
| 20260505173629 | 84 | 209 | 7.0 | 9.0 | 0.00 | 0.00 | 0.00 | 31 | 1004.4 |
| 20260505173126 | 84 | 185 | 3.0 | 7.0 | 0.00 | 0.00 | 0.00 | 31 | 1004.5 |
| 20260505172623 | 83 | 95 | 4.0 | 6.0 | 0.00 | 0.00 | 0.00 | 31 | 1004.4 |
| 20260505172120 | 83 | 169 | 4.0 | 7.0 | 0.00 | 0.00 | 0.00 | 31 | 1004.5 |
| 20260505171614 | 83 | 339 | 3.0 | 8.0 | 0.00 | 0.00 | 0.00 | 31 | 1004.6 |
| 20260505171112 | 83 | 89 | 4.0 | 11.0 | 0.00 | 0.00 | 0.00 | 32 | 1004.5 |
| 20260505170609 | 83 | 134 | 0.0 | 8.0 | 0.00 | 0.00 | 0.00 | 34 | 1004.5 |
| 20260505170105 | 82 | 273 | 2.0 | 7.0 | 0.00 | 0.00 | 0.00 | 34 | 1004.6 |
| 20260505165600 | 82 | 156 | 6.0 | 11.0 | 0.00 | 0.00 | 0.00 | 32 | 1005.0 |
| 20260505165056 | 82 | 158 | 3.0 | 10.0 | 0.00 | 0.00 | 0.00 | 34 | 1004.9 |
| 20260505164552 | 82 | 118 | 2.0 | 8.0 | 0.00 | 0.00 | 0.00 | 34 | 1005.2 |
| 20260505164050 | 81 | 28 | 2.0 | 7.0 | 0.00 | 0.00 | 0.00 | 35 | 1005.3 |
| 20260505163548 | 81 | 148 | 6.0 | 9.0 | 0.00 | 0.00 | 0.00 | 34 | 1005.3 |
| 20260505163045 | 81 | 221 | 7.0 | 11.0 | 0.00 | 0.00 | 0.00 | 35 | 1005.6 |
| 20260505162543 | 81 | 181 | 5.0 | 14.0 | 0.00 | 0.00 | 0.00 | 35 | 1005.6 |
| 20260505162041 | 80 | 143 | 3.0 | 8.0 | 0.00 | 0.00 | 0.00 | 35 | 1005.6 |
| 20260505161537 | 80 | 176 | 4.0 | 8.0 | 0.00 | 0.00 | 0.00 | 35 | 1005.9 |
| 20260505161035 | 80 | 220 | 6.0 | 9.0 | 0.00 | 0.00 | 0.00 | 37 | 1005.9 |
| 20260505160532 | 80 | 172 | 5.0 | 8.0 | 0.00 | 0.00 | 0.00 | 37 | 1006.0 |
| 20260505153009 | 75 | 56 | 2.0 | 9.0 | 0.00 | 0.00 | 0.00 | 42 | 1006.9 |
| 20260505152506 | 76 | 217 | 4.0 | 7.0 | 0.00 | 0.00 | 0.00 | 41 | 1006.9 |
| 20260505152001 | 76 | 176 | 3.0 | 4.0 | 0.00 | 0.00 | 0.00 | 41 | 1006.9 |
| 20260505151456 | 75 | 216 | 3.0 | 7.0 | 0.00 | 0.00 | 0.00 | 41 | 1007.2 |
| 20260505150955 | 75 | 159 | 1.0 | 6.0 | 0.00 | 0.00 | 0.00 | 43 | 1007.1 |
| 20260505150451 | 75 | 82 | 6.0 | 8.0 | 0.00 | 0.00 | 0.00 | 42 | 1007.1 |
| 20260505140421 | 70 | 63 | 2.0 | 4.0 | 0.00 | 0.00 | 0.00 | 49 | 1007.4 |
| 20260505124834 | 63 | 155 | 2.0 | 7.0 | 0.00 | 0.00 | 0.00 | 56 | 1007.3 |
| 20260505124332 | 62 | 176 | 0.0 | 4.0 | 0.00 | 0.00 | 0.00 | 58 | 1007.4 |
| 20260505123828 | 62 | 189 | 2.0 | 3.0 | 0.00 | 0.00 | 0.00 | 58 | 1007.3 |
| 20260505123324 | 62 | 154 | 1.0 | 4.0 | 0.00 | 0.00 | 0.00 | 59 | 1007.6 |
| 20260505122820 | 61 | 217 | 1.0 | 3.0 | 0.00 | 0.00 | 0.00 | 61 | 1007.8 |
| 20260505122318 | 60 | 186 | 2.0 | 3.0 | 0.00 | 0.00 | 0.00 | 61 | 1007.8 |
| 20260505121814 | 59 | 131 | 0.0 | 4.0 | 0.00 | 0.00 | 0.00 | 62 | 1007.5 |
| 20260505121311 | 59 | 152 | 1.0 | 4.0 | 0.00 | 0.00 | 0.00 | 63 | 1007.7 |
| 20260505120808 | 59 | 184 | 2.0 | 4.0 | 0.00 | 0.00 | 0.00 | 64 | 1007.5 |
| 20260505120304 | 58 | 126 | 1.0 | 2.0 | 0.00 | 0.00 | 0.00 | 64 | 1007.7 |
| 20260505115802 | 58 | 218 | 0.0 | 6.0 | 0.00 | 0.00 | 0.00 | 64 | 1007.9 |
| 20260505115300 | 58 | 183 | 2.0 | 8.0 | 0.00 | 0.00 | 0.00 | 64 | 1007.8 |
| 20260505114757 | 58 | 130 | 1.0 | 3.0 | 0.00 | 0.00 | 0.00 | 65 | 1007.9 |
| 20260505114253 | 57 | 120 | 2.0 | 2.0 | 0.00 | 0.00 | 0.00 | 66 | 1007.5 |
| 20260505113750 | 56 | 172 | 1.0 | 3.0 | 0.00 | 0.00 | 0.00 | 67 | 1007.6 |
| 20260505113247 | 56 | 106 | 1.0 | 2.0 | 0.00 | 0.00 | 0.00 | 68 | 1007.6 |
| 20260505112743 | 55 | 157 | 1.0 | 3.0 | 0.00 | 0.00 | 0.00 | 69 | 1007.6 |
| 20260505112241 | 55 | 135 | 3.0 | 6.0 | 0.00 | 0.00 | 0.00 | 69 | 1007.5 |
| 20260505111740 | 55 | 137 | 0.0 | 2.0 | 0.00 | 0.00 | 0.00 | 69 | 1007.5 |
| 20260505111236 | 55 | 159 | 1.0 | 1.0 | 0.00 | 0.00 | 0.00 | 69 | 1007.5 |
| 20260505110732 | 54 | 193 | 2.0 | 3.0 | 0.00 | 0.00 | 0.00 | 69 | 1007.5 |
| 20260505110230 | 54 | 174 | 2.0 | 3.0 | 0.00 | 0.00 | 0.00 | 69 | 1007.5 |
| 20260505102206 | 52 | 149 | 0.0 | 1.0 | 0.00 | 0.00 | 0.00 | 72 | 1007.5 |
| 20260505101704 | 52 | 226 | 0.0 | 1.0 | 0.00 | 0.00 | 0.00 | 72 | 1007.4 |
| 20260505101200 | 51 | 84 | 0.0 | 1.0 | 0.00 | 0.00 | 0.00 | 73 | 1007.4 |
| 20260505100656 | 51 | 133 | 1.0 | 2.0 | 0.00 | 0.00 | 0.00 | 74 | 1007.6 |
| 20260505100154 | 50 | 150 | 1.0 | 1.0 | 0.00 | 0.00 | 0.00 | 76 | 1007.3 |
| 20260505095649 | 50 | 115 | 0.0 | 0.0 | 0.00 | 0.00 | 0.00 | 78 | 1007.4 |
| 20260505095147 | 49 | 94 | 0.0 | 1.0 | 0.00 | 0.00 | 0.00 | 79 | 1007.4 |
| 20260505094643 | 48 | 129 | 0.0 | 0.0 | 0.00 | 0.00 | 0.00 | 80 | 1007.5 |
| 20260505094139 | 48 | 138 | 0.0 | 0.0 | 0.00 | 0.00 | 0.00 | 79 | 1007.4 |
| 20260505093636 | 48 | 135 | 0.0 | 0.0 | 0.00 | 0.00 | 0.00 | 79 | 1007.5 |
| 20260505093133 | 48 | 133 | 0.0 | 0.0 | 0.00 | 0.00 | 0.00 | 78 | 1007.7 |
| 20260505092630 | 49 | 133 | 0.0 | 0.0 | 0.00 | 0.00 | 0.00 | 78 | 1007.5 |
| 20260505092129 | 49 | 134 | 0.0 | 1.0 | 0.00 | 0.00 | 0.00 | 77 | 1007.6 |
| 20260505091625 | 49 | 127 | 0.0 | 0.0 | 0.00 | 0.00 | 0.00 | 76 | 1007.4 |
| 20260505091124 | 49 | 127 | 0.0 | 0.0 | 0.00 | 0.00 | 0.00 | 75 | 1007.7 |
| 20260505090621 | 50 | 122 | 0.0 | 0.0 | 0.00 | 0.00 | 0.00 | 74 | 1007.7 |
| 20260505090119 | 50 | 156 | 0.0 | 0.0 | 0.00 | 0.00 | 0.00 | 73 | 1007.6 |
| 20260505085616 | 51 | 110 | 0.0 | 0.0 | 0.00 | 0.00 | 0.00 | 73 | 1007.6 |
| 20260505085114 | 51 | 117 | 0.0 | 0.0 | 0.00 | 0.00 | 0.00 | 72 | 1007.4 |
| 20260505084612 | 51 | 129 | 0.0 | 0.0 | 0.00 | 0.00 | 0.00 | 72 | 1007.4 |
| 20260505084110 | 51 | 148 | 0.0 | 1.0 | 0.00 | 0.00 | 0.00 | 72 | 1007.5 |
| 20260505083607 | 51 | 117 | 0.0 | 1.0 | 0.00 | 0.00 | 0.00 | 71 | 1007.5 |
| 20260505083103 | 51 | 115 | 0.0 | 1.0 | 0.00 | 0.00 | 0.00 | 71 | 1007.7 |
| 20260505082559 | 51 | 127 | 1.0 | 1.0 | 0.00 | 0.00 | 0.00 | 72 | 1007.6 |
| 20260505082056 | 50 | 86 | 0.0 | 0.0 | 0.00 | 0.00 | 0.00 | 73 | 1007.8 |
| 20260505081552 | 51 | 110 | 0.0 | 0.0 | 0.00 | 0.00 | 0.00 | 72 | 1007.9 |
| 20260505081050 | 51 | 120 | 0.0 | 0.0 | 0.00 | 0.00 | 0.00 | 71 | 1007.6 |
| 20260505080546 | 51 | 118 | 0.0 | 0.0 | 0.00 | 0.00 | 0.00 | 71 | 1007.8 |
| 20260505080043 | 51 | 107 | 0.0 | 0.0 | 0.00 | 0.00 | 0.00 | 71 | 1007.6 |
| 20260505075538 | 51 | 140 | 0.0 | 0.0 | 0.00 | 0.00 | 0.00 | 71 | 1007.8 |
| 20260505075036 | 51 | 124 | 0.0 | 0.0 | 0.00 | 0.00 | 0.00 | 72 | 1007.7 |
| 20260505074532 | 51 | 101 | 0.0 | 0.0 | 0.00 | 0.00 | 0.00 | 72 | 1007.8 |
| 20260505074030 | 51 | 104 | 0.0 | 0.0 | 0.00 | 0.00 | 0.00 | 71 | 1007.9 |
| 20260505073527 | 51 | 114 | 0.0 | 0.0 | 0.00 | 0.00 | 0.00 | 71 | 1008.0 |
| 20260505073026 | 51 | 110 | 0.0 | 0.0 | 0.00 | 0.00 | 0.00 | 71 | 1007.9 |
| 20260505072521 | 51 | 111 | 0.0 | 0.0 | 0.00 | 0.00 | 0.00 | 70 | 1007.9 |
| 20260505072017 | 51 | 128 | 0.0 | 0.0 | 0.00 | 0.00 | 0.00 | 70 | 1008.0 |
| 20260505071513 | 51 | 119 | 0.0 | 0.0 | 0.00 | 0.00 | 0.00 | 69 | 1007.8 |
| 20260505071011 | 52 | 135 | 0.0 | 0.0 | 0.00 | 0.00 | 0.00 | 68 | 1008.1 |
| 20260505070508 | 52 | 135 | 0.0 | 0.0 | 0.00 | 0.00 | 0.00 | 68 | 1007.9 |
| 20260505070004 | 52 | 152 | 0.0 | 0.0 | 0.00 | 0.00 | 0.00 | 68 | 1008.0 |